Location: Greenwich
(51.4790°N, 0.0090°E)
Time: 19:28:02
(UTC+01:00)

Courier 1B Rocket - Pass Details

Date: 26 April 2024
Orbit: 920 x 1201 km, 28.2° (Epoch: 19 May)

Event Time Altitude Azimuth Distance (km) Brightness Sun altitude
Exits shadow 04:16:36 - 197° (SSW) 3,204 7.2 -11.9°
Reaches altitude 10° 04:17:45 10° 189° (S) 3,094 7.2 -11.8°
Maximum altitude 04:19:18 11° 177° (S) 3,029 7.2 -11.6°
Drops below altitude 10° 04:20:51 10° 165° (SSE) 3,068 7.4 -11.4°
Sets 04:26:36 0° 131° (SE) 3,963 8.3 -10.7°
